Hlavní strana
METAR-TAF:

METAR-TAF

Letiště :

Pryor Field Regional Airport

Decatur, Alabama, Spojené státy americké

zeměpisná šířka: 34-39-29N, zeměpisná délka: 086-56-36W, výška: 180 m

Aktuální stav počasí

Zpráva byla vytvořena před 21 minutami, v 09:53 UTC
Severoseverozápadní vítr 10 kt
Teplota 5°C
Vlhkost vzduchu 81%
Tlak 1020 hPa
Viditelnost: 16.1 km
Zataženo ve výšce 1900 ft

METAR: KDCU 180953Z AUTO 34010KT 10SM OVC019 05/02 A3012 RMK AO2 SLP201 T00500017

Čas: 04:14 (10:14 UTC)


TAF: chybějící

Stav a předpovědi počasí z více než 4 000 letišť (zprávy METAR a TAF).

Červené a žluté tečky na mapě představují dostupné meteorologické stanice.

Když kurzor umístíte na tečku, zobrazí se název stanice.

Pak kliknutím zobrazíte stav a předpověď počasí.

Chcete-li změnit mapu, kliknutím na zelené tlačítko se znaménkem +mapu přiblížíte, kliknutím na zelené tlačítko se znaménkem – mapu oddálíte a kliknutím na zelené šipky přejdete na sousední mapy.


METAR-TAF: